La Junta, CO

12:30 PM MST on December 06, 2016 (GMT -0700)
La Junta Municipal

Weather History for KLHX - June, 2013

Change the Weather History Date:

Saturday, June 22, 2013

  Actual Average Record
Temperature  
Mean Temperature 79 °F 75 °F  
Max Temperature 92 °F 91 °F 106 °F (1978)
Min Temperature 65 °F 59 °F 48 °F (1947)
Degree Days  
Heating Degree Days 0 0  
Month to date heating degree days 11 15  
Since 1 June heating degree days 11 15  
Since 1 July heating degree days 5085 5270  
Cooling Degree Days 14 10  
Month to date cooling degree days 254 156  
Year to date cooling degree days 392 229  
Since 1 June cooling degree days 254 156  
Growing Degree Days 28 (Base 50)    
Moisture  
Dew Point 41 °F    
Average Humidity 32    
Maximum Humidity 48    
Minimum Humidity 15    
Precipitation  
Precipitation 0.00 in 0.05 in 0.83 in (1972)
Month to date precipitation 2.00 1.01  
Year to date precipitation 2.67  
Sea Level Pressure  
Sea Level Pressure 29.61 in    
Wind  
Wind Speed 10 mph (SSE)    
Max Wind Speed 23 mph    
Max Gust Speed 30 mph    
Visibility 10 miles    
Events      
T = Trace of Precipitation, MM = Missing Value Source: NWS Daily Summary

Daily Weather History Graph

Daily Weather History Graph

Search for Another Location

Airport or City:

Trip Planner

Search our weather history database for the weather conditions in past years. The results will help you decide how hot, cold, wet, or windy it might be!

Date:

Astronomy

Jun. 22, 2013 Rise Set
Actual Time 5:31 AM MDT 8:20 PM MDT
Civil Twilight 5:00 AM MDT 8:51 PM MDT
Nautical Twilight 4:20 AM MDT 9:31 PM MDT
Astronomical Twilight 3:35 AM MDT 10:16 PM MDT
Moon 7:38 PM MDT (6/22) 4:45 AM MDT (6/22)
Length of Visible Light 15h 51m
Length of Day
14h 48m
Waxing Gibbous, 99% of the Moon is Illuminated
Jun 22
Waxing Gibbous
Jun 23
Full
Jun 29
Last Quarter
Jul 8
New
Jul 15
First Quarter

Hourly Weather History & Observations

Time (MDT) Temp. Dew Point Humidity Pressure Visibility Wind Dir Wind Speed Gust Speed Precip Events Conditions
12:53 AM 73.9 °F 25.0 °F 16% 29.61 in 10.0 mi South 5.8 mph - N/A   Clear
1:53 AM 79.0 °F 37.9 °F 23% 29.60 in 10.0 mi SSW 15.0 mph - N/A   Mostly Cloudy
2:53 AM 79.0 °F 46.9 °F 32% 29.60 in 10.0 mi SSW 17.3 mph - N/A   Mostly Cloudy
3:53 AM 73.9 °F 48.9 °F 41% 29.62 in 10.0 mi SW 15.0 mph - N/A   Overcast
4:53 AM 73.0 °F 45.0 °F 37% 29.63 in 10.0 mi WSW 15.0 mph - N/A   Overcast
5:53 AM 64.9 °F 44.1 °F 47% 29.66 in 10.0 mi NNW 11.5 mph - N/A   Overcast
6:53 AM 68.0 °F 46.0 °F 45% 29.68 in 10.0 mi NNW 11.5 mph - N/A   Clear
7:53 AM 73.0 °F 46.0 °F 38% 29.69 in 10.0 mi NNW 10.4 mph - N/A   Clear
8:53 AM 73.9 °F 46.0 °F 37% 29.70 in 10.0 mi NW 6.9 mph - N/A   Clear
9:53 AM 75.9 °F 46.0 °F 35% 29.71 in 10.0 mi WNW 4.6 mph - N/A   Clear
10:53 AM 80.1 °F 46.0 °F 30% 29.72 in 10.0 mi Calm Calm - N/A   Clear
11:53 AM 82.9 °F 44.1 °F 25% 29.70 in 10.0 mi ENE 4.6 mph - N/A   Clear
12:53 PM 87.1 °F 42.1 °F 21% 29.67 in 10.0 mi East 6.9 mph - N/A   Clear
1:53 PM 89.1 °F 37.0 °F 16% 29.61 in 10.0 mi East 6.9 mph - N/A   Clear
2:53 PM 90.0 °F 39.0 °F 17% 29.58 in 10.0 mi East 12.7 mph - N/A   Clear
3:53 PM 90.0 °F 39.9 °F 17% 29.57 in 10.0 mi East 11.5 mph - N/A   Clear
4:53 PM 91.0 °F 37.9 °F 15% 29.54 in 10.0 mi East 9.2 mph - N/A   Clear
5:53 PM 91.0 °F 42.1 °F 18% 29.53 in 10.0 mi East 12.7 mph - N/A   Clear
6:53 PM 90.0 °F 43.0 °F 19% 29.51 in 10.0 mi ESE 9.2 mph - N/A   Clear
7:53 PM 84.9 °F 45.0 °F 25% 29.52 in 10.0 mi East 5.8 mph - N/A   Clear
8:53 PM 82.0 °F 44.1 °F 26% 29.54 in 10.0 mi SSW 3.5 mph - N/A   Clear
9:53 PM 78.1 °F 42.1 °F 28% 29.57 in 10.0 mi SW 4.6 mph - N/A   Clear
10:53 PM 73.9 °F 30.0 °F 20% 29.59 in 10.0 mi West 13.8 mph - N/A   Overcast
11:53 PM 73.9 °F 24.1 °F 16% 29.58 in 10.0 mi West 15.0 mph - N/A   Overcast